TAM8070 SBGR-EDDF

Flight info

Callsign TAM8070
Flight time N/A
Altitude 31000
Route NUXEL UZ23 ILPIR UZ72 EDNES UN866 NIGTU/N0500F330 UN866 DEKON/N0494F340 UN866 AMDOL/N0488F330 UN866 IRANI/N0485F350 UN866 TENPA N866 GOMER/N0475F340 N866 BRICK/N0476F360 N866 KONBA UN866 BEXAL/N0416F240 UN872 ESP/N0471F360 DCT MAGUM/N0412F240 UN745 RIVRO/N0473F360 DCT ZMR N873 DELOG DCT PEXOD DCT DIDIG DCT TIRAV DCT ERJAZ DCT PIWIZ DCT TSU UM163 LEQOS DCT SUIPE DCT LUTAX/N0471F370 DCT DIK DCT IMCOM IMCOM1B/25R
Aircraft B77W/H-SDE2E3FGHIJ1J4J5M1RWXYZ/EB1D1

Departure

Time N/A
Airport São Paulo/Guarulhos–Governor André Franco Montoro International Airport (SBGR)

Arrival

Time 2026-05-07 15:44
Airport Frankfurt Main Airport (EDDF)
Time Latitude Longitude Altitude Speed Heading
2026-05-07 15:44 50.03645 8.50353 331 ft 5 kts 70°
2026-05-07 15:44 50.03650 8.50377 327 ft 0 kts 70°
2026-05-07 15:45 50.03656 8.50404 328 ft 8 kts 70°
2026-05-07 15:45 50.03691 8.50549 333 ft 21 kts 69°
2026-05-07 15:45 50.03747 8.50782 334 ft 22 kts 69°
2026-05-07 15:46 50.03829 8.51122 337 ft 14 kts 70°
2026-05-07 15:46 50.03861 8.51260 340 ft 14 kts 70°
2026-05-07 15:46 50.03894 8.51399 338 ft 14 kts 70°
2026-05-07 15:47 50.03925 8.51528 336 ft 12 kts 69°
2026-05-07 15:47 50.03952 8.51638 351 ft 10 kts 69°
2026-05-07 15:47 50.03977 8.51742 347 ft 10 kts 70°
2026-05-07 15:47 50.04000 8.51842 352 ft 12 kts 69°
2026-05-07 15:48 50.04046 8.52029 349 ft 26 kts 69°
2026-05-07 15:48 50.04125 8.52357 354 ft 39 kts 69°
2026-05-07 15:48 50.04210 8.52716 357 ft 32 kts 70°
2026-05-07 15:48 50.04285 8.53031 365 ft 28 kts 69°
2026-05-07 15:49 50.04351 8.53305 371 ft 25 kts 70°
2026-05-07 15:49 50.04384 8.53448 378 ft 10 kts 72°
2026-05-07 15:49 50.04403 8.53628 380 ft 27 kts 84°
2026-05-07 15:49 50.04425 8.53969 380 ft 30 kts 84°
2026-05-07 15:50 50.04448 8.54305 379 ft 28 kts 84°
2026-05-07 15:50 50.04422 8.54605 372 ft 28 kts 118°
2026-05-07 15:50 50.04285 8.54787 367 ft 24 kts 158°
2026-05-07 15:50 50.04160 8.54857 365 ft 13 kts 160°
2026-05-07 15:51 50.04098 8.54893 358 ft 5 kts 160°
2026-05-07 15:51 50.04095 8.54895 355 ft 0 kts 160°
2026-05-07 15:51 50.04051 8.54920 358 ft 18 kts 160°
2026-05-07 15:51 50.04023 8.55030 362 ft 11 kts 76°
2026-05-07 15:52 50.04062 8.55200 362 ft 24 kts 70°
2026-05-07 15:52 50.04138 8.55518 361 ft 38 kts 70°
2026-05-07 15:52 50.04215 8.55838 364 ft 27 kts 69°
2026-05-07 15:52 50.04279 8.56104 365 ft 24 kts 69°
2026-05-07 15:53 50.04330 8.56318 364 ft 17 kts 70°
2026-05-07 15:53 50.04367 8.56472 368 ft 16 kts 70°
2026-05-07 15:53 50.04406 8.56640 368 ft 17 kts 69°
2026-05-07 15:53 50.04447 8.56808 368 ft 17 kts 69°
2026-05-07 15:54 50.04485 8.56968 363 ft 15 kts 69°
2026-05-07 15:54 50.04525 8.57137 363 ft 15 kts 70°
2026-05-07 15:54 50.04559 8.57279 362 ft 0 kts 70°
2026-05-07 15:55 50.04578 8.57357 368 ft 11 kts 70°
2026-05-07 15:55 50.04602 8.57431 370 ft 1 kts 50°
2026-05-07 15:55 50.04631 8.57463 369 ft 10 kts 31°
2026-05-07 15:56 50.04675 8.57502 368 ft 4 kts 29°
2026-05-07 15:56 50.04677 8.57504 361 ft 0 kts 29°
2026-05-07 15:56 50.04685 8.57510 361 ft 5 kts 28°
2026-05-07 15:56 50.04701 8.57524 361 ft 0 kts 28°
2026-05-07 15:57 50.04712 8.57534 361 ft 2 kts 29°
2026-05-07 15:57 50.04719 8.57540 361 ft 2 kts 29°
2026-05-07 15:57 50.04721 8.57541 361 ft 0 kts 29°